This is the latest recevied weather packets stored in our database for station/object GJ7DNI-13. If no packets are shown the sender has not sent any weather packets the latest 10 day(s).
| Time | Temp. | Humidity | Pressure | Rain* | Wind** | Luminosity | Snow |
|---|---|---|---|---|---|---|---|
| 1777578008 | 20.56° C | 55% | 1015.3 hPa | 0 mm | - | 0 W/m² | - |
| 1777577708 | 20.56° C | 55% | 1015.3 hPa | 0 mm | - | 0 W/m² | - |
| 1777577408 | 20.56° C | 55% | 1015.2 hPa | 0 mm | - | 0 W/m² | - |
| 1777577108 | 21.11° C | 55% | 1015.1 hPa | 0 mm | - | 0 W/m² | - |
| 1777576808 | 21.11° C | 54% | 1015.1 hPa | 0 mm | - | 0 W/m² | - |
| 1777576508 | 21.11° C | 54% | 1015 hPa | 0 mm | - | 5 W/m² | - |
| 1777576208 | 21.11° C | 53% | 1014.9 hPa | 0 mm | - | 9 W/m² | - |
| 1777575908 | 21.67° C | 53% | 1014.9 hPa | 0 mm | - | 12 W/m² | - |
| 1777575608 | 21.67° C | 52% | 1014.8 hPa | 0 mm | - | 16 W/m² | - |
| 1777575308 | 21.67° C | 52% | 1014.7 hPa | 0 mm | - | 21 W/m² | - |
| 1777575008 | 21.67° C | 52% | 1014.7 hPa | 0 mm | - | 28 W/m² | - |
| 1777574708 | 22.22° C | 52% | 1014.7 hPa | 0 mm | - | 44 W/m² | - |
| 1777574408 | 22.22° C | 52% | 1014.7 hPa | 0 mm | - | 54 W/m² | - |
| 1777574108 | 22.22° C | 52% | 1014.7 hPa | 0 mm | - | 70 W/m² | - |
| 1777573808 | 22.22° C | 53% | 1014.7 hPa | 0 mm | - | 88 W/m² | - |
| 1777573508 | 22.22° C | 53% | 1014.7 hPa | 0 mm | - | 84 W/m² | - |
| 1777573208 | 21.67° C | 53% | 1014.6 hPa | 0 mm | - | 105 W/m² | - |
| 1777572908 | 21.67° C | 53% | 1014.6 hPa | 0 mm | - | 113 W/m² | - |
| 1777572608 | 21.67° C | 54% | 1014.6 hPa | 0 mm | - | 62 W/m² | - |
| 1777572308 | 21.67° C | 54% | 1014.6 hPa | 0 mm | - | 74 W/m² | - |
| 1777572008 | 21.11° C | 54% | 1014.6 hPa | 0 mm | - | 134 W/m² | - |
| 1777571708 | 21.11° C | 54% | 1014.6 hPa | 0 mm | - | 114 W/m² | - |
| 1777571408 | 21.67° C | 53% | 1014.6 hPa | 0 mm | - | 65 W/m² | - |
| 1777571108 | 21.67° C | 53% | 1014.6 hPa | 0 mm | - | 91 W/m² | - |
| 1777570808 | 21.67° C | 53% | 1014.6 hPa | 0 mm | - | 93 W/m² | - |
* Rain latest hour (hover to see other rain measurements)
** Current wind speed in m/s (hover to see current wind gust speed)